Location: Fluertsh�userhof
(48.7537°N, 10.3850°E)
Time: 09:36:43
(UTC+00:00)

Cosmos 1626 - Pass Details

Date: 20 January 2021
Orbit: 490 x 494 km, 82.5° (Epoch: 28 February)

Event Time Altitude Azimuth Distance (km) Brightness Sun altitude
Rises 16:36:59 0° 187° (S) 2,564 6.2 -6.6°
Reaches altitude 10° 16:39:04 10° 186° (S) 1,687 5.2 -7.0°
Maximum altitude 16:42:46 85° 99° (E) 502 2.1 -7.5°
Drops below altitude 10° 16:46:30 10° 11° (N) 1,700 4.5 -8.1°
Sets 16:48:37 0° 11° (N) 2,587 5.4 -8.4°
